ROMMA est une association bénévole à but non lucratif. Votre soutien est indispensable : ADHERER à ROMMA ou FAIRE un DON

Briord - (01, Ain)

Bugey (281 m)   Longitude: 05° 29' 13" E   Latitude: 45° 46' 37" N Station partenaire n°15
 

Détail journalier du     <<     >>

Température Precipitation Humidité Pression Vent Dir Rafale Dir. rafale Ensol.
Heure (°C) (mm) (%) (hPa) (km/h) (km/h) (min)
01:00 1.6094103600---0
02:00 1.8095103500---0
03:00 1.8095103600---0
04:00 1.7095103600---0
05:00 0.2094103603E0
06:00 -0.3094103605ENE0
07:00 0.4093103606ENE0
08:00 0.609310361NE11NE0
09:00 0.4092103606NE5
10:00 3.408610361E15ESE40
11:00 5.108410372E13ONO60
12:00 3.609210362ONO16ONO60
13:00 3.8092103603SSO5
14:00 4.909110352O15N40
15:00 5.309010353O15O60
16:00 4.808910351O8NO60
17:00 2.9092103505NO30
18:00 0.9093103505ONO0
19:00 1.0094103500---0
20:00 1.1094103500---0
21:00 0.9094103600---0
22:00 0.9094103605N0
23:00 0.7094103603NE0
minuit 0.8094103600---0

Graphique du 29-12-2019

 

Serveur OMMA